FW3936 Weather Reports


Display with metric or nautical units.
time (UTC)temp
F
wind
direction
speed
MPH
gust
MPH
rain 1hr
in
rain 24hr
in
rain mn
in
humidity
%
barometer
mb
20260906231019 90 360 4.0 9.0 0.00 0.00 0.00 51 1012.4
20260906230520 90 360 0.0 6.0 0.00 0.00 0.00 53 1012.4
20260906230019 89 360 1.0 6.0 0.00 0.00 0.00 54 1012.4
20260906225519 89 360 0.0 8.0 0.00 0.00 0.00 54 1012.3
20260906225019 89 360 2.0 5.0 0.00 0.00 0.00 56 1012.3
20260906224522 90 360 0.0 7.0 0.00 0.00 0.00 56 1012.3
20260906224020 91 360 1.0 7.0 0.00 0.00 0.00 56 1012.3
20260906223521 92 360 1.0 6.0 0.00 0.00 0.00 49 1012.3
20260906223018 91 360 2.0 6.0 0.00 0.00 0.00 49 1012.2
20260906222516 91 360 1.0 6.0 0.00 0.00 0.00 50 1012.4
20260906222018 91 360 1.0 5.0 0.00 0.00 0.00 50 1012.5
20260906221515 90 360 0.0 7.0 0.00 0.00 0.00 51 1012.6
20260906221014 90 360 3.0 7.0 0.00 0.00 0.00 52 1012.8
20260906220514 90 360 2.0 7.0 0.00 0.00 0.00 52 1012.7
20260906220013 90 360 1.0 6.0 0.00 0.00 0.00 52 1012.7
20260906215512 90 360 1.0 5.0 0.00 0.00 0.00 51 1012.7
20260906215012 90 360 1.0 5.0 0.00 0.00 0.00 51 1012.7
20260906214518 91 360 1.0 6.0 0.00 0.00 0.00 50 1012.8
20260906214009 91 360 2.0 6.0 0.00 0.00 0.00 50 1012.8
20260906213509 91 360 0.0 8.0 0.00 0.00 0.00 50 1012.8
20260906213012 92 360 0.0 8.0 0.00 0.00 0.00 49 1012.9
20260906212508 92 360 1.0 8.0 0.00 0.00 0.00 48 1012.9
20260906212009 93 360 1.0 6.0 0.00 0.00 0.00 47 1012.8
20260906211508 94 360 1.0 5.0 0.00 0.00 0.00 46 1012.9
20260906211008 94 360 1.0 5.0 0.00 0.00 0.00 45 1012.9
20260906210507 94 360 0.0 7.0 0.00 0.00 0.00 43 1013.0
20260906210008 93 360 4.0 7.0 0.00 0.00 0.00 46 1013.0
20260906205507 92 360 1.0 4.0 0.00 0.00 0.00 47 1013.1
20260906205006 92 360 0.0 6.0 0.00 0.00 0.00 47 1013.1
20260906204507 92 360 2.0 6.0 0.00 0.00 0.00 47 1013.2
20260906204006 93 360 0.0 9.0 0.00 0.00 0.00 47 1013.2
20260906203507 94 360 2.0 9.0 0.00 0.00 0.00 45 1013.2
20260906203014 95 360 0.0 6.0 0.00 0.00 0.00 40 1013.3
20260906202507 95 360 1.0 8.0 0.00 0.00 0.00 40 1013.3
20260906202007 96 360 2.0 8.0 0.00 0.00 0.00 40 1013.3
20260906201506 97 360 4.0 8.0 0.00 0.00 0.00 38 1013.3
20260906201004 99 360 3.0 6.0 0.00 0.00 0.00 36 1013.4
20260906200503 97 360 1.0 7.0 0.00 0.00 0.00 38 1013.4
20260906200011 97 360 3.0 7.0 0.00 0.00 0.00 38 1013.6
20260906195503 97 360 1.0 6.0 0.00 0.00 0.00 38 1013.6
20260906195002 97 360 1.0 10.0 0.00 0.00 0.00 37 1013.8
20260906194501 97 360 1.0 10.0 0.00 0.00 0.00 38 1013.9
20260906194100 97 360 3.0 7.0 0.00 0.00 0.00 39 1013.9
20260906193558 96 360 1.0 6.0 0.00 0.00 0.00 39 1013.9
20260906193059 94 360 1.0 6.0 0.00 0.00 0.00 41 1013.9
20260906192558 93 360 1.0 6.0 0.00 0.00 0.00 41 1014.0
20260906192058 92 360 1.0 5.0 0.00 0.00 0.00 43 1014.1
20260906191600 93 360 1.0 4.0 0.00 0.00 0.00 42 1014.1
20260906191057 95 360 0.0 7.0 0.00 0.00 0.00 41 1014.2
20260906190602 95 360 2.0 7.0 0.00 0.00 0.00 41 1014.3
20260906190109 96 360 0.0 6.0 0.00 0.00 0.00 40 1014.3
20260906185559 96 360 1.0 6.0 0.00 0.00 0.00 41 1014.3
20260906185054 95 360 2.0 9.0 0.00 0.00 0.00 40 1014.3
20260906184553 95 360 3.0 9.0 0.00 0.00 0.00 41 1014.4
20260906184050 94 360 3.0 8.0 0.00 0.00 0.00 43 1014.5
20260906183551 92 360 2.0 5.0 0.00 0.00 0.00 44 1014.5
20260906183105 91 360 1.0 4.0 0.00 0.00 0.00 46 1014.6
20260906182550 93 360 0.0 6.0 0.00 0.00 0.00 45 1014.5
20260906182050 94 360 1.0 6.0 0.00 0.00 0.00 44 1014.7
20260906181550 94 360 3.0 8.0 0.00 0.00 0.00 41 1014.7
20260906181053 94 360 2.0 8.0 0.00 0.00 0.00 43 1014.7
20260906180547 93 360 2.0 6.0 0.00 0.00 0.00 46 1014.7
20260906180108 92 360 1.0 5.0 0.00 0.00 0.00 48 1014.9
20260906175547 92 360 1.0 5.0 0.00 0.00 0.00 47 1014.9
20260906175046 93 360 1.0 6.0 0.00 0.00 0.00 46 1015.1
20260906174546 92 360 1.0 6.0 0.00 0.00 0.00 46 1015.1
20260906174045 93 360 0.0 4.0 0.00 0.00 0.00 45 1015.3
20260906173547 93 360 0.0 4.0 0.00 0.00 0.00 49 1015.3
20260906173044 92 360 0.0 7.0 0.00 0.00 0.00 50 1015.5
20260906172543 93 360 3.0 7.0 0.00 0.00 0.00 48 1015.4
20260906172042 93 360 2.0 7.0 0.00 0.00 0.00 48 1015.6
20260906171541 92 360 0.0 5.0 0.00 0.00 0.00 49 1015.6
20260906171039 92 360 2.0 6.0 0.00 0.00 0.00 50 1015.8
20260906170537 92 360 1.0 6.0 0.00 0.00 0.00 50 1015.9
20260906170106 91 360 3.0 6.0 0.00 0.00 0.00 52 1015.9
20260906165536 91 360 1.0 6.0 0.00 0.00 0.00 52 1015.9
20260906165036 90 360 1.0 4.0 0.00 0.00 0.00 52 1015.8
20260906164532 90 360 0.0 4.0 0.00 0.00 0.00 54 1015.8
20260906164032 90 360 2.0 7.0 0.00 0.00 0.00 53 1015.9
20260906163533 89 360 3.0 7.0 0.00 0.00 0.00 56 1016.0
20260906163030 89 360 2.0 7.0 0.00 0.00 0.00 56 1016.0
20260906162530 89 360 0.0 3.0 0.00 0.00 0.00 54 1015.9
20260906162028 89 360 1.0 3.0 0.00 0.00 0.00 55 1015.8
20260906161527 89 360 1.0 3.0 0.00 0.00 0.00 55 1015.9
20260906161025 88 360 0.0 3.0 0.00 0.00 0.00 58 1015.9
20260906160524 88 360 1.0 3.0 0.00 0.00 0.00 58 1015.9
20260906160025 87 360 0.0 4.0 0.00 0.00 0.00 59 1016.0
20260906155528 87 360 1.0 4.0 0.00 0.00 0.00 59 1015.9
20260906155020 87 360 0.0 5.0 0.00 0.00 0.00 59 1015.9
20260906154522 86 360 2.0 5.0 0.00 0.00 0.00 60 1015.9
20260906154019 86 360 0.0 5.0 0.00 0.00 0.00 63 1015.7
20260906153517 85 360 2.0 7.0 0.00 0.00 0.00 62 1015.8
20260906153118 85 360 1.0 7.0 0.00 0.00 0.00 63 1015.8
20260906152518 85 360 0.0 6.0 0.00 0.00 0.00 63 1015.8
20260906152016 85 360 2.0 6.0 0.00 0.00 0.00 63 1015.8
20260906151512 85 360 1.0 5.0 0.00 0.00 0.00 64 1015.7
20260906151011 84 360 0.0 5.0 0.00 0.00 0.00 64 1015.6
20260906150510 84 360 0.0 5.0 0.00 0.00 0.00 65 1015.5
20260906150008 84 360 1.0 4.0 0.00 0.00 0.00 65 1015.7
20260906145507 83 360 0.0 5.0 0.00 0.00 0.00 65 1015.6
20260906145006 83 360 0.0 5.0 0.00 0.00 0.00 66 1015.5
20260906144505 82 360 1.0 6.0 0.00 0.00 0.00 67 1015.5
20260906144003 82 360 1.0 6.0 0.00 0.00 0.00 68 1015.5
20260906143503 81 360 3.0 6.0 0.00 0.00 0.00 69 1015.4
20260906143000 81 360 1.0 5.0 0.00 0.00 0.00 71 1015.5
20260906142602 80 360 1.0 4.0 0.00 0.00 0.00 71 1015.5
20260906142100 80 360 0.0 3.0 0.00 0.00 0.00 71 1015.4
20260906141559 80 360 1.0 3.0 0.00 0.00 0.00 71 1015.5
20260906141058 79 360 1.0 3.0 0.00 0.00 0.00 71 1015.5
20260906140558 79 360 0.0 3.0 0.00 0.00 0.00 71 1015.5
20260906140059 79 360 0.0 3.0 0.00 0.00 0.00 71 1015.4
20260906135556 78 360 0.0 4.0 0.00 0.00 0.00 71 1015.4
20260906135058 78 360 1.0 4.0 0.00 0.00 0.00 70 1015.3
20260906134603 77 360 0.0 4.0 0.00 0.00 0.00 69 1015.1
20260906134053 77 360 0.0 4.0 0.00 0.00 0.00 68 1015.1
20260906133553 77 360 0.0 2.0 0.00 0.00 0.00 68 1015.1
20260906133057 77 360 0.0 4.0 0.00 0.00 0.00 68 1015.1
20260906132552 76 360 1.0 4.0 0.00 0.00 0.00 67 1015.0
20260906132051 76 360 0.0 2.0 0.00 0.00 0.00 68 1015.0
20260906131550 76 360 0.0 0.0 0.00 0.00 0.00 68 1014.9
20260906131049 76 360 0.0 2.0 0.00 0.00 0.00 68 1014.8
20260906130549 75 360 0.0 2.0 0.00 0.00 0.00 68 1014.8
20260906130051 75 360 0.0 1.0 0.00 0.00 0.00 68 1014.7
20260906125546 75 360 0.0 1.0 0.00 0.00 0.00 69 1014.7
20260906125047 75 360 0.0 0.0 0.00 0.00 0.00 69 1014.7
20260906124547 75 360 0.0 0.0 0.00 0.00 0.00 69 1014.6
20260906124045 75 360 0.0 0.0 0.00 0.00 0.00 69 1014.4
20260906123544 75 360 0.0 0.0 0.00 0.00 0.00 70 1014.3
20260906123112 75 360 0.0 1.0 0.00 0.00 0.00 70 1014.4
20260906122543 75 360 0.0 0.0 0.00 0.00 0.00 70 1014.3
20260906122043 75 360 0.0 0.0 0.00 0.00 0.00 71 1014.3
20260906121542 75 360 0.0 0.0 0.00 0.00 0.00 71 1014.2
20260906121040 75 360 0.0 1.0 0.00 0.00 0.00 71 1014.1
20260906120540 75 360 0.0 1.0 0.00 0.00 0.00 71 1014.2
20260906120039 75 360 0.0 1.0 0.00 0.00 0.00 71 1014.1
20260906115540 75 360 0.0 0.0 0.00 0.00 0.00 71 1014.1
20260906115039 75 360 0.0 0.0 0.00 0.00 0.00 72 1014.1
20260906114539 75 360 0.0 0.0 0.00 0.00 0.00 72 1014.1
20260906114038 75 360 0.0 0.0 0.00 0.00 0.00 72 1014.1
20260906113539 75 360 0.0 0.0 0.00 0.00 0.00 72 1013.8
20260906113041 75 360 0.0 3.0 0.00 0.00 0.00 72 1013.9
20260906112638 75 360 0.0 3.0 0.00 0.00 0.00 72 1013.8
20260906112039 75 360 0.0 0.0 0.00 0.00 0.00 72 1013.5
20260906111536 75 360 0.0 0.0 0.00 0.00 0.00 72 1013.1
20260906111035 75 360 0.0 0.0 0.00 0.00 0.00 72 1013.0
20260906110536 76 360 0.0 0.0 0.00 0.00 0.00 72 1013.0
20260906110036 76 360 0.0 0.0 0.00 0.00 0.00 72 1013.1
20260906105535 76 360 0.0 0.0 0.00 0.00 0.00 72 1013.2
20260906105034 76 360 0.0 0.0 0.00 0.00 0.00 72 1013.2
20260906104535 76 360 0.0 0.0 0.00 0.00 0.00 72 1013.2
20260906104037 76 360 0.0 0.0 0.00 0.00 0.00 72 1013.1
20260906103536 76 360 0.0 0.0 0.00 0.00 0.00 72 1013.1
20260906103035 76 360 0.0 0.0 0.00 0.00 0.00 72 1013.1
20260906102535 76 360 0.0 0.0 0.00 0.00 0.00 72 1013.1
20260906102034 76 360 0.0 0.0 0.00 0.00 0.00 72 1013.1
20260906101534 76 360 0.0 0.0 0.00 0.00 0.00 72 1013.0
20260906101033 76 360 0.0 0.0 0.00 0.00 0.00 72 1013.0
20260906100536 76 360 0.0 0.0 0.00 0.00 0.00 72 1012.9
20260906100033 76 360 0.0 0.0 0.00 0.00 0.00 72 1012.9
20260906095532 76 360 0.0 0.0 0.00 0.00 0.00 72 1012.9
20260906095034 76 360 0.0 0.0 0.00 0.00 0.00 72 1012.9
20260906094532 76 360 0.0 0.0 0.00 0.00 0.00 72 1012.9
20260906094032 76 360 0.0 0.0 0.00 0.00 0.00 72 1012.9
20260906093531 76 360 0.0 0.0 0.00 0.00 0.00 72 1012.9
20260906093030 76 360 0.0 0.0 0.00 0.00 0.00 72 1012.9
20260906092529 76 360 0.0 0.0 0.00 0.00 0.00 72 1012.9
20260906092029 76 360 0.0 0.0 0.00 0.00 0.00 72 1013.0
20260906091532 76 360 0.0 0.0 0.00 0.00 0.00 72 1013.1
20260906091028 76 360 0.0 0.0 0.00 0.00 0.00 72 1013.1
20260906090526 76 360 0.0 0.0 0.00 0.00 0.00 72 1013.2
20260906090027 76 360 0.0 0.0 0.00 0.00 0.00 72 1013.1
20260906085530 77 360 0.0 0.0 0.00 0.00 0.00 72 1013.1
20260906085026 77 360 0.0 0.0 0.00 0.00 0.00 72 1013.1
20260906084525 77 360 0.0 0.0 0.00 0.00 0.00 71 1013.2
20260906084028 77 360 0.0 0.0 0.00 0.00 0.00 71 1013.3
20260906083524 77 360 0.0 0.0 0.00 0.00 0.00 71 1013.3
20260906083030 77 360 0.0 0.0 0.00 0.00 0.00 71 1013.4
20260906082522 77 360 0.0 0.0 0.00 0.00 0.00 71 1013.4
20260906082021 77 360 0.0 0.0 0.00 0.00 0.00 71 1013.5
20260906081520 78 360 0.0 0.0 0.00 0.00 0.00 71 1013.4
20260906081019 78 360 0.0 0.0 0.00 0.00 0.00 70 1013.6
20260906080520 78 360 0.0 0.0 0.00 0.00 0.00 70 1013.6
20260906080027 78 360 0.0 0.0 0.00 0.00 0.00 70 1013.6
20260906075518 78 360 0.0 0.0 0.00 0.00 0.00 70 1013.6
20260906075017 78 360 0.0 0.0 0.00 0.00 0.00 70 1013.6
20260906074517 78 360 0.0 0.0 0.00 0.00 0.00 70 1013.6
20260906074015 78 360 0.0 1.0 0.00 0.00 0.00 70 1013.6
20260906073516 78 360 0.0 2.0 0.00 0.00 0.00 70 1013.7
20260906073014 79 360 0.0 4.0 0.00 0.00 0.00 69 1013.9
20260906072513 79 360 0.0 7.0 0.00 0.00 0.00 69 1014.1
20260906072012 79 360 1.0 7.0 0.00 0.00 0.00 69 1014.2
20260906071511 79 360 0.0 5.0 0.00 0.00 0.00 69 1014.2
20260906071013 79 360 1.0 6.0 0.00 0.00 0.00 69 1014.3
20260906070510 79 360 1.0 6.0 0.00 0.00 0.00 68 1014.4
20260906070010 79 360 2.0 4.0 0.00 0.00 0.00 68 1014.3
20260906065510 79 360 0.0 4.0 0.00 0.00 0.00 68 1014.3
20260906065009 79 360 0.0 4.0 0.00 0.00 0.00 68 1014.4
20260906064509 79 360 0.0 4.0 0.00 0.00 0.00 68 1014.4
20260906064009 79 360 0.0 4.0 0.00 0.00 0.00 68 1014.5
20260906063508 79 360 1.0 4.0 0.00 0.00 0.00 68 1014.4
20260906063007 79 360 0.0 3.0 0.00 0.00 0.00 68 1014.3
20260906062507 79 360 0.0 3.0 0.00 0.00 0.00 67 1014.4
20260906062006 79 360 0.0 2.0 0.00 0.00 0.00 67 1014.6
20260906061505 80 360 0.0 1.0 0.00 0.00 0.00 67 1014.7
20260906061004 80 360 0.0 0.0 0.00 0.00 0.00 66 1014.6
20260906060505 80 360 0.0 1.0 0.00 0.00 0.00 66 1014.6
20260906060003 80 360 0.0 3.0 0.00 0.00 0.00 66 1014.7
20260906055504 80 360 0.0 3.0 0.00 0.00 0.00 66 1014.6
20260906055003 80 360 0.0 6.0 0.00 0.00 0.00 66 1014.6
20260906054502 80 360 0.0 6.0 0.00 0.00 0.00 65 1014.6
20260906054001 80 360 0.0 4.0 0.00 0.00 0.00 65 1014.6
20260906053600 81 360 0.0 3.0 0.00 0.00 0.00 65 1014.6
20260906053109 81 360 0.0 3.0 0.00 0.00 0.00 64 1014.6
20260906052559 81 360 0.0 4.0 0.00 0.00 0.00 64 1014.6
20260906052057 81 360 1.0 6.0 0.00 0.00 0.00 63 1014.7
20260906051600 81 360 2.0 6.0 0.00 0.00 0.00 63 1014.7
20260906051055 81 360 0.0 4.0 0.00 0.00 0.00 62 1014.7
20260906050557 81 360 1.0 4.0 0.00 0.00 0.00 62 1014.8
20260906050055 82 360 0.0 4.0 0.00 0.00 0.00 62 1014.9
20260906045551 82 360 0.0 4.0 0.00 0.00 0.00 62 1014.9
20260906045051 82 360 0.0 4.0 0.00 0.00 0.00 62 1014.9
20260906044551 82 360 1.0 4.0 0.00 0.00 0.00 62 1014.9
20260906044050 82 360 1.0 3.0 0.00 0.00 0.00 62 1014.8
20260906043550 82 360 1.0 7.0 0.00 0.00 0.00 62 1014.8
20260906043055 82 360 0.0 9.0 0.00 0.00 0.00 62 1014.8
20260906042549 83 360 1.0 9.0 0.00 0.00 0.00 62 1014.9
20260906042049 83 360 2.0 7.0 0.00 0.00 0.00 62 1014.9
20260906041552 83 360 2.0 8.0 0.00 0.00 0.00 62 1014.9
20260906041048 83 360 4.0 7.0 0.00 0.00 0.00 62 1014.7
20260906040550 83 360 0.0 9.0 0.00 0.00 0.00 61 1014.7
20260906040049 83 360 2.0 9.0 0.00 0.00 0.00 61 1014.7
20260906035546 83 360 1.0 6.0 0.00 0.00 0.00 61 1014.6
20260906035047 84 360 1.0 5.0 0.00 0.00 0.00 61 1014.6
20260906034546 84 360 1.0 5.0 0.00 0.00 0.00 61 1014.6
20260906034045 84 360 1.0 5.0 0.00 0.00 0.00 60 1014.5
20260906033547 84 360 1.0 6.0 0.00 0.00 0.00 60 1014.4
20260906033058 84 360 1.0 6.0 0.00 0.00 0.00 60 1014.3
20260906032544 84 360 0.0 5.0 0.00 0.00 0.00 60 1014.1
20260906032043 85 360 1.0 7.0 0.00 0.00 0.00 59 1014.1
20260906031543 85 360 3.0 7.0 0.00 0.00 0.00 59 1014.0
20260906031042 85 360 2.0 8.0 0.00 0.00 0.00 59 1013.9
20260906030541 85 360 3.0 8.0 0.00 0.00 0.00 59 1013.7
20260906030045 85 360 3.0 11.0 0.00 0.00 0.00 59 1013.7
20260906025540 85 360 4.0 11.0 0.00 0.00 0.00 58 1013.6
20260906025043 85 360 5.0 11.0 0.00 0.00 0.00 58 1013.4
20260906024545 85 360 3.0 10.0 0.00 0.00 0.00 57 1013.3
20260906024039 85 360 2.0 11.0 0.00 0.00 0.00 56 1013.2
20260906023542 85 360 3.0 11.0 0.00 0.00 0.00 56 1013.1
20260906023048 84 360 4.0 9.0 0.00 0.00 0.00 56 1012.8
20260906022538 84 360 2.0 8.0 0.00 0.00 0.00 56 1012.7
20260906022040 84 360 1.0 5.0 0.00 0.00 0.00 55 1012.4
20260906021537 84 360 1.0 5.0 0.00 0.00 0.00 55 1012.4
20260906021037 84 360 0.0 5.0 0.00 0.00 0.00 55 1012.3
20260906020537 84 360 2.0 8.0 0.00 0.00 0.00 54 1012.3
20260906020051 84 360 3.0 8.0 0.00 0.00 0.00 54 1012.1
20260906015536 85 360 3.0 6.0 0.00 0.00 0.00 54 1012.2
20260906015036 85 360 1.0 2.0 0.00 0.00 0.00 53 1012.0
20260906014537 85 360 0.0 0.0 0.00 0.00 0.00 53 1011.9
20260906014040 85 360 0.0 0.0 0.00 0.00 0.00 52 1012.1
20260906013540 85 360 0.0 0.0 0.00 0.00 0.00 52 1012.0
20260906013047 86 360 0.0 0.0 0.00 0.00 0.00 51 1011.9
20260906012538 86 360 0.0 0.0 0.00 0.00 0.00 51 1011.9
20260906012035 86 360 0.0 0.0 0.00 0.00 0.00 50 1012.0
20260906011544 87 360 0.0 0.0 0.00 0.00 0.00 49 1011.9
20260906011036 87 360 0.0 0.0 0.00 0.00 0.00 48 1011.8
20260906010534 88 360 0.0 0.0 0.00 0.00 0.00 48 1011.7
20260906010040 88 360 0.0 1.0 0.00 0.00 0.00 47 1011.7
20260906005534 88 360 0.0 2.0 0.00 0.00 0.00 47 1011.6
20260906005034 89 360 0.0 3.0 0.00 0.00 0.00 46 1011.6
20260906004534 89 360 1.0 3.0 0.00 0.00 0.00 46 1011.5
20260906004038 89 360 0.0 5.0 0.00 0.00 0.00 46 1011.6
20260906003534 89 360 1.0 6.0 0.00 0.00 0.00 46 1011.5
20260906003035 90 360 2.0 6.0 0.00 0.00 0.00 45 1011.5
20260906002533 90 360 2.0 7.0 0.00 0.00 0.00 45 1011.6
20260906002035 90 360 2.0 7.0 0.00 0.00 0.00 45 1011.6
20260906001535 90 360 0.0 2.0 0.00 0.00 0.00 44 1011.6
20260906001033 91 360 0.0 3.0 0.00 0.00 0.00 43 1011.6
20260906000535 91 360 1.0 4.0 0.00 0.00 0.00 43 1011.5
20260906000048 91 360 1.0 4.0 0.00 0.00 0.00 42 1011.5
20260905235532 91 360 1.0 4.0 0.00 0.00 0.00 43 1011.6
20260905235033 91 360 1.0 5.0 0.00 0.00 0.00 42 1011.5
20260905234533 91 360 1.0 5.0 0.00 0.00 0.00 42 1011.6
20260905234032 92 360 0.0 4.0 0.00 0.00 0.00 42 1011.6
20260905233532 92 360 1.0 5.0 0.00 0.00 0.00 42 1011.6
20260905233035 92 360 0.0 8.0 0.00 0.00 0.00 42 1011.7
20260905232634 92 360 2.0 8.0 0.00 0.00 0.00 42 1011.6
20260905232031 92 360 1.0 6.0 0.00 0.00 0.00 41 1011.5
20260905231531 92 360 1.0 7.0 0.00 0.00 0.00 41 1011.5